Location: Doux
(49.5045°N, 4.4321°E)
Time: 02:43:42
(UTC+00:00)

COSMOS 2406 - Pass Details

Date: 23 May 2024
Orbit: 844 x 861 km, 71.0° (Epoch: 21 June)

Event Time Altitude Azimuth Distance (km) Brightness Sun altitude
Exits shadow 01:19:31 24° 225° (SW) 1,711 4.2 -16.4°
Maximum altitude 01:23:02 66° 302° (WNW) 937 3.4 -16.1°
Drops below altitude 10° 01:28:47 10° 25° (NNE) 2,509 7.1 -15.7°
Sets 01:31:17 0° 28° (NNE) 3,448 8.3 -15.6°
